Location: Dortmund
(51.5019°N, 7.6520°E)
Time: 04:50:56
(UTC+01:00)

ISS - Pass Details

Date: 13 November 2017
Orbit: 402 x 407 km, 51.6° (Epoch: 22 November)

Event Time Altitude Azimuth Distance (km) Brightness Sun altitude
Exits shadow 06:35:12 15° 263° (W) 1,188 -2.0 -10.8°
Maximum altitude 06:37:15 27° 211° (SSW) 801 -2.5 -10.4°
Drops below altitude 10° 06:40:04 10° 151° (SSE) 1,451 -0.3 -10.0°
Sets 06:42:18 0° 139° (SE) 2,307 1.1 -9.7°
